BILLUND_AIRPORT current weather conditions

sailwx.info

Wind from 190 at 6 knots

Air temperature 5.0° C
Visibility: greater than 3.8 NM
Dewpoint 5.0° C

Last reported at 2019-Dec-11 19:50 UTC.
Time now 2019-Dec-11 20:37 UTC

Location: N 55°44' E 009°09'.
View on Google Maps.

See reports from other nearby stations

  
Tides and Currents Weather Stations Pressure Air Temp Water Temp Dewpoint Dewpoint Depression Visibility Wind Speed Wind Dir Waves Ship Positions
date/time (UTC)wind fromknots sea level pressurealtimeterstation pressurevisibilityair tempwater tempwave heightnotes
2019-Dec-11 19:50 190 6 3.8 5.0
2019-Dec-11 19:20 180 6 3.8 5.0
2019-Dec-11 18:50 180 6 3.8 5.0
2019-Dec-11 18:20 170 6 3.8 5.0
2019-Dec-11 17:50 180 5 3.2 5.0
2019-Dec-11 17:20 180 6 3.2 5.0
2019-Dec-11 16:50 170 5 2.7 5.0
2019-Dec-11 16:20 140 5 4.3 4.0
2019-Dec-11 15:50 160 4 5.4 5.0
2019-Dec-11 15:20 180 5 5.4 5.0
2019-Dec-11 14:50 170 5 4.9 5.0
2019-Dec-11 14:20 180 4 5.4 6.0
2019-Dec-11 13:20 190 5 5.4 6.0
2019-Dec-11 12:50 190 6 5.4 6.0
2019-Dec-11 12:20 180 6 5.4 7.0
2019-Dec-11 11:50 180 5 5.4 6.0
2019-Dec-11 10:20 180 5 5.4 6.0
2019-Dec-11 09:50 200 6 5.4 6.0
2019-Dec-11 09:20 200 5 5.4 6.0
2019-Dec-11 08:50 210 6 5.4 6.0
2019-Dec-11 08:20 200 6 5.4 6.0
2019-Dec-11 07:50 210 6 5.4 6.0
2019-Dec-11 07:20 210 7 5.4 6.0
2019-Dec-11 06:50 210 7 5.4 7.0
2019-Dec-11 06:20 210 8 5.4 7.0
2019-Dec-11 05:50 210 11 5.4 7.0
2019-Dec-11 05:20 210 11 2.7 7.0 Light rain.
2019-Dec-11 04:50 200 11 4.3 6.0 Light rain.
2019-Dec-11 04:20 200 13 gusting 24 4.3 6.0 Rain.
2019-Dec-11 03:50 200 14 gusting 26 3.2 5.0 Light rain.
2019-Dec-11 03:20 190 17 gusting 28 2.7 5.0 Light rain.
2019-Dec-11 02:50 190 19 gusting 31 3.2 5.0 Light rain.
2019-Dec-11 02:20 190 20 gusting 31 2.3 4.0 Light rain. Mist.
2019-Dec-11 01:50 190 19 gusting 33 2.5 4.0 Light rain. Mist.
2019-Dec-11 01:20 190 18 gusting 31 2.1 4.0 Light rain.
2019-Dec-11 00:50 190 18 gusting 28 2.3 4.0 Light rain. Mist.
2019-Dec-11 00:20 190 15 gusting 26 2.0 4.0 Drizzle. Mist.
2019-Dec-10 23:50 190 18 gusting 34 5.4 4.0 Light rain.
2019-Dec-10 23:20 180 15 gusting 29 2.6 4.0 Drizzle. Mist.
2019-Dec-10 22:50 180 17 2.3 3.0 Light rain showers. Mist.
2019-Dec-10 22:20 180 17 gusting 27 2.4 3.0 Light rain showers.
2019-Dec-10 21:50 180 15 gusting 26 5.4 3.0 Light drizzle.
2019-Dec-10 21:20 170 17 2.1 3.0 Light rain.
2019-Dec-10 20:50 170 19 gusting 32 3.2 3.0 Light rain.
2019-Dec-10 20:20 170 15 gusting 28 5.4 4.0 Light rain.
2019-Dec-10 19:50 170 17 gusting 34 5.4 4.0
2019-Dec-10 19:20 170 17 gusting 31 5.4 4.0
2019-Dec-10 18:50 170 15 gusting 27 5.4 4.0
2019-Dec-10 18:20 170 14 gusting 25 5.4 4.0
2019-Dec-10 17:50 170 15 gusting 27 5.4 4.0
2019-Dec-10 17:20 170 12 gusting 21 5.4 4.0
2019-Dec-10 16:50 170 13 5.4 4.0
2019-Dec-10 16:20 170 12 5.4 4.0
2019-Dec-10 15:50 180 13 5.4 5.0
2019-Dec-10 15:20 180 12 5.4 5.0
2019-Dec-10 14:50 180 11 5.4 5.0
2019-Dec-10 14:20 180 9 5.4 5.0
2019-Dec-10 13:50 170 7 5.4 5.0
2019-Dec-10 13:20 170 6 5.4 5.0
2019-Dec-10 12:50 190 7 5.4 5.0
2019-Dec-10 11:50 180 6 5.4 5.0
2019-Dec-10 11:20 180 5 5.4 4.0
2019-Dec-10 10:50 180 5 5.4 4.0
2019-Dec-10 10:20 180 6 5.4 3.0
2019-Dec-10 09:50 180 5 5.4 2.0
2019-Dec-10 09:20 100 0 5.4 1.0
2019-Dec-10 08:50 160 1 5.4-0.0
2019-Dec-10 08:20 130 1 5.4-1.0
2019-Dec-10 07:50 180 1 5.4-1.0
2019-Dec-10 07:20 5.4-2.0
2019-Dec-10 06:50 140 1 5.4-1.0
2019-Dec-10 06:20 150 0 5.4-1.0
2019-Dec-10 05:50 250 5 5.4-0.0
2019-Dec-10 05:20 270 6 5.4-0.0
2019-Dec-10 04:50 260 4 5.4-2.0
2019-Dec-10 04:20 260 5 5.4-0.0
2019-Dec-10 03:50 270 6 5.4-1.0
2019-Dec-10 03:20 260 6 5.4-1.0
2019-Dec-10 02:50 280 6 5.4-0.0
2019-Dec-10 02:20 270 6 5.4-0.0
2019-Dec-10 01:50 270 5 5.4-0.0
2019-Dec-10 01:20 280 6 5.4 1.0
2019-Dec-10 00:50 300 7 5.4 2.0
2019-Dec-10 00:20 280 7 5.4 2.0
2019-Dec-09 23:50 290 7 5.4 1.0
2019-Dec-09 23:20 290 6 5.4 2.0
2019-Dec-09 22:50 300 7 5.4 2.0
2019-Dec-09 22:20 300 6 5.4 2.0
2019-Dec-09 21:50 290 8 5.4 2.0
2019-Dec-09 21:20 270 7 5.4 1.0
2019-Dec-09 20:50 270 7 5.4 1.0
2019-Dec-09 20:20 280 6 5.4 2.0